Flag for Japan Weather past 2 weeks in Nagano, Japan

Now
49 °F

Cool.


Feels Like: 49 °F
Forecast: 45 / 75 °F
Wind: 2 mph from North

Location: Nagano

Current Time: Oct 25, 2014 at 2:26:09 AM

Latest Report: Oct 25, 2014 at 1:00 AM


Visibility: N/A

Pressure: 30.24 "Hg

Humidity: 93%

Dew point: 47 °F

Location of NaganoLocation

Historic Weather in Nagano — Graph

°F

Nagano temperature yesterday

Maximum temperature yesterday: 67 °F (at 2:00 PM)
Minimum temperature yesterday: 47 °F (at 6:00 AM)
Average temperature yesterday: 55 °F

Past Weeks' High & Low Weather Summary

 TemperatureHumidityPressure
High73 °F (Oct 10, 12:00 PM)97% (Oct 13, 11:00 PM)30.43 "Hg (Oct 13, 11:00 PM)
Low39 °F (Oct 18, 6:00 AM)29% (Oct 19, 3:00 PM)29.21 "Hg (Oct 14, 1:00 AM)
Average56 °F76%30.08 "Hg
* Reported Oct 10 1:00 AM — Oct 25 1:00 AM, Nagano, Weather by CustomWeather, © 2014

Note: Actual official high and low records may vary slightly from our data, if they occured in-between our weather recording intervals... More about our weather records

Advertising

Nagano weather history for previous 24 hours

 ConditionsComfort  
Time TempWeatherWind HumidityBarometerVisibility
1:00 AM
Oct 25
49 °FCool.2 mph93%30.24 "HgN/A
12:00 AM51 °FCool.5 mph90%30.23 "HgN/A
11:00 PM
Oct 24
51 °FCool.No wind88%30.23 "HgN/A
10:00 PM52 °FCool.6 mph83%30.22 "HgN/A
9:00 PM52 °FPassing clouds.5 mph86%30.22 "Hg9 mi
8:00 PM53 °FCool.5 mph85%30.19 "HgN/A
7:00 PM55 °FCool.3 mph79%30.18 "HgN/A
6:00 PM57 °FCool.2 mph71%30.15 "HgN/A
5:00 PM60 °FCool.1 mph64%30.11 "HgN/A
4:00 PM63 °FMild.8 mph61%30.09 "HgN/A
3:00 PM66 °FPassing clouds.7 mph53%30.07 "Hg16 mi
2:00 PM67 °FMild.7 mph52%30.06 "HgN/A
1:00 PM66 °FMild.6 mph53%30.08 "HgN/A
12:00 PM62 °FRefreshingly cool.3 mph56%30.11 "HgN/A
11:00 AM60 °FCool.3 mph61%30.15 "HgN/A
10:00 AM57 °FCool.3 mph67%30.17 "HgN/A
9:00 AM53 °FPassing clouds.2 mph76%30.19 "Hg6 mi
8:00 AM50 °FCool.3 mph82%30.21 "HgN/A
7:00 AM49 °FCool.3 mph86%30.20 "HgN/A
6:00 AM47 °FCool.No wind92%30.20 "HgN/A
5:00 AM47 °FCool.2 mph89%30.17 "HgN/A
4:00 AM48 °FCool.2 mph88%30.16 "HgN/A
3:00 AM49 °FPassing clouds.1 mph85%30.14 "Hg9 mi
2:00 AM49 °FCool.3 mph86%30.14 "HgN/A
Weather by CustomWeather, © 2014

See weather overviewHow to use our weather pages